sat.trackr.live / text

‹ back to catalog

STARLINK-31549

NORAD 59360 · 2024-060N

PAYLOAD ACTIVE UNKNOWN

§ Identity

Operator
Country
US
Launch date
2024-03-31
Launch site
AFETR
Launch vehicle
Mass (kg)
RCS (m²)

Purposes: comms

External: N2YO · Heavens-Above · Gunter

§ Orbital elements

Epoch: 2026-05-24T20:21:52.488288Z

Period
94.27 min
Inclination
43.0032°
Eccentricity
0.0001423
Mean motion
15.27575893 rev/d
Perigee alt
482.1 km
Apogee alt
484.0 km
Semi-major
6,861.2 km
B*
1.5395e-5
RAAN
189.4718°
Arg perigee
272.5487°
Mean anomaly
87.5201°
Rev number
12,171

§ Raw data

STARLINK-315491 59360U 24060N   26144.84852417  .00000161  00000+0  15395-4 0  99952 59360  43.0032 189.4718 0001423 272.5487  87.5201 15.27575893121717

JSON: /api/v1/satellites/59360 · /tle

For live sub-satellite position, see the globe view (requires WebGL).

§ Visibility from observer

Set your observer location to see the next 7 days of passes ≥ 10°. The values pass through the URL so the page stays shareable.

No JS? Fill the form by hand. The geolocation button needs JavaScript.